IR1CH-3 Weather Reports


time (UTC)temp
C
wind
direction
speed
KPH
gust
KPH
rain 1hr
cm
rain 24hr
cm
rain mn
cm
humidity
%
barometer
mb
20260507141116 18 0.0 0.0 0.00 0.00 0.00 82 1013.3
20260507134116 18 0.0 0.0 0.00 0.00 0.00 86 1013.7
20260507131115 18 0.0 0.0 0.00 0.00 0.00 87 1013.8
20260507124115 19 0.0 0.0 0.00 0.00 0.00 85 1013.5
20260507121115 19 0.0 0.0 0.00 0.00 0.00 81 1013.2
20260507114114 19 0.0 0.0 0.00 0.00 0.00 84 1013.4
20260507111114 20 0.0 0.0 0.00 0.00 0.00 84 1013.7
20260507104114 20 0.0 0.0 0.00 0.00 0.00 83 1013.5
20260507101113 19 0.0 0.0 0.00 0.00 0.00 86 1013.6
20260507094113 18 0.0 0.0 0.00 0.00 0.00 93 1013.5
20260507091113 18 0.0 0.0 0.00 0.00 0.00 85 1013.0
20260507084112 18 0.0 0.0 0.00 0.00 0.00 85 1012.9
20260507081112 18 0.0 0.0 0.00 0.00 0.00 83 1012.5
20260507074112 17 0.0 0.0 0.00 0.00 0.00 82 1012.3
20260507071112 17 0.0 0.0 0.00 0.00 0.00 86 1012.6
20260507064111 16 0.0 0.0 0.00 0.00 0.00 91 1012.5
20260507061111 16 0.0 0.0 0.00 0.00 0.00 88 1012.2
20260507054111 16 0.0 0.0 0.00 0.00 0.00 87 1012.0
20260507051110 13 0.0 0.0 0.00 0.00 0.00 98 1011.8
20260507044110 13 0.0 0.0 0.00 0.00 0.00 99 1011.7
20260507041110 13 0.0 0.0 0.00 0.00 0.00 99 1011.6
20260507034109 13 0.0 0.0 0.00 0.00 0.00 99 1011.4
20260507031109 13 0.0 0.0 0.00 0.00 0.00 99 1011.4
20260507024109 13 0.0 0.0 0.00 0.00 0.00 99 1011.3
20260507021108 13 0.0 0.0 0.00 0.00 0.00 99 1011.2
20260507014108 13 0.0 0.0 0.00 0.00 0.00 99 1011.2
20260507011107 13 0.0 0.0 0.00 0.00 0.00 99 1011.2
20260507004107 13 0.0 0.0 0.00 0.00 0.00 99 1011.4
20260507001107 13 0.0 0.0 0.00 0.00 0.00 99 1011.2
20260506234107 13 0.0 0.0 0.00 0.00 0.00 99 1011.1
20260506231106 13 0.0 0.0 0.00 0.00 0.00 99 1011.0
20260506224106 14 0.0 0.0 0.00 0.00 0.00 99 1011.0
20260506221106 14 0.0 0.0 0.00 0.00 0.00 99 1011.1
20260506214105 15 0.0 0.0 0.00 0.00 0.00 99 1010.9
20260506211105 15 0.0 0.0 0.00 0.00 0.00 99 1010.6
20260506204134 15 0.0 0.0 0.00 0.00 0.00 99 1010.4
20260506201134 15 0.0 0.0 0.00 0.00 0.00 99 1009.8
20260506194134 15 0.0 0.0 0.00 0.00 0.00 99 1009.5
20260506191133 15 0.0 0.0 0.00 0.00 0.00 99 1009.6
20260506184133 15 0.0 0.0 0.00 0.00 0.00 99 1008.9
20260506181133 15 0.0 0.0 0.00 0.00 0.00 99 1009.1
20260506174132 15 0.0 0.0 0.00 0.00 0.00 99 1008.6
20260506171132 16 0.0 0.0 0.00 0.00 0.00 98 1007.6
20260506164132 16 0.0 0.0 0.00 0.00 0.00 97 1007.3
20260506161131 16 0.0 0.0 0.00 0.00 0.00 99 1007.3
20260506154131 16 0.0 0.0 0.00 0.00 0.00 99 1007.4
20260506151131 16 0.0 0.0 0.00 0.00 0.00 99 1007.4
20260506144131 16 0.0 0.0 0.00 0.00 0.00 99 1007.9